"Pseudo-MPEC" for X56127

Created 2018 May 19 23:18:06 UT using Find_Orb

Click here for an explanation of pseudo-MPECs

 
 Astrometry: 
     X56127   C2018 05 124*Astrometryhvop-CM1qwp\L+A^=vfy#MjU:$_][5RQBuX^a)51D29
     X56127   C2018 05 12cL]IG]-dYt=7!-F;eredacted;_xFt*RseedTAnCRWo6MhZ-bwxcD29
     X56127   C2018 05 12^DXJ)1p#;sug'[$Ilt_Mj2;KsWHqta;R1x=[U38N.%/%:4NNEOCPD29

Station data:
(D29) Purple Mountain Observatory, XuYi Station  (N32.734366 E118.463900)
   China.  Observers H. B. Zhao, B. Li, G. Zhaori, R. Q. Hong, L. F. Hu.
   Measurers H. B. Zhao, B. Li. H. Lu, G. Zhaori. 1.04-m f/1.8 Schmidt + CCD.

Orbital elements:  X56127
   Perihelion 2018 Aug 18.313854 +/- 137 TT =  7:31:57 (JD 2458348.813854)
Epoch 2018 May 13.0 TT = JDT 2458251.5   Earth MOID: 0.4001   Ma: 0.0791
M 341.40109 +/- 60                  (J2000 ecliptic)          AutoNEOCP
n   0.19112293 +/- 0.309            Peri.  252.57133 +/- 100
a   2.98488440 +/- 3.21             Node    31.10048 +/- 7
e   0.5735836 +/- 0.281             Incl.   17.76122 +/- 24
P   5.16                   H 19.5   G  0.15   U 12.0  SR
q 1.27280338 +/- 0.836    Q 4.69696543 +/- 35.6
From 3 observations 2018 May 12 (40.7 min); mean residual 0".19
Residuals in arcseconds: 
180512 D29  .12+  .15+    180512 D29  .25-  .30-    180512 D29  .12+  .15+    

Ephemerides (geocentric):
Date (UTC) HH   RA              Dec         delta   r     elong  mag " sig PA
---- -- -- --  ------------   ------------  ------ ------ -----  --- ---- ---
2018 05 19 23  12 27 51.886   -07 54 10.10  .76603 1.6191 130.7 21.2 2848 160
2018 05 20 00  12 27 49.409   -07 54 46.60  .76605 1.6189 130.7 21.2 2864 160
2018 05 20 01  12 27 46.937   -07 55 23.13  .76607 1.6186 130.6 21.2 2881 160
2018 05 20 02  12 27 44.471   -07 55 59.67  .76610 1.6183 130.6 21.2 2898 160
2018 05 20 03  12 27 42.009   -07 56 36.25  .76612 1.6181 130.5 21.2 2915 160
2018 05 20 04  12 27 39.552   -07 57 12.84  .76614 1.6178 130.5 21.2 2932 160
2018 05 20 05  12 27 37.100   -07 57 49.46  .76617 1.6176 130.4 21.2 2949 160
2018 05 20 06  12 27 34.654   -07 58 26.10  .76619 1.6173 130.4 21.2 2966 160
2018 05 20 07  12 27 32.212   -07 59 02.76  .76622 1.6170 130.3 21.2 2982 160
2018 05 20 08  12 27 29.775   -07 59 39.45  .76624 1.6168 130.3 21.2 2999 160
2018 05 20 09  12 27 27.343   -08 00 16.16  .76627 1.6165 130.2 21.2 3016 160
2018 05 20 10  12 27 24.917   -08 00 52.89  .76629 1.6162 130.2 21.2 3033 160
2018 05 20 11  12 27 22.495   -08 01 29.65  .76632 1.6160 130.2 21.2 3050 160
2018 05 20 12  12 27 20.079   -08 02 06.43  .76634 1.6157 130.1 21.2 3067 160
2018 05 20 13  12 27 17.667   -08 02 43.23  .76637 1.6154 130.1 21.2 3085 160
2018 05 20 14  12 27 15.260   -08 03 20.05  .76639 1.6152 130.0 21.2 3102 160
2018 05 20 15  12 27 12.859   -08 03 56.90  .76642 1.6149 130.0 21.2 3119 160
2018 05 20 16  12 27 10.462   -08 04 33.77  .76645 1.6146 129.9 21.2 3136 160
2018 05 20 17  12 27 08.071   -08 05 10.66  .76647 1.6144 129.9 21.2 3153 160
2018 05 20 18  12 27 05.685   -08 05 47.57  .76650 1.6141 129.8 21.2 3170 160
2018 05 20 19  12 27 03.303   -08 06 24.51  .76653 1.6139 129.8 21.2 3187 159
2018 05 20 20  12 27 00.927   -08 07 01.47  .76655 1.6136 129.7 21.2 3205 159
2018 05 20 21  12 26 58.556   -08 07 38.46  .76658 1.6133 129.7 21.2 3222 159
2018 05 20 22  12 26 56.190   -08 08 15.46  .76661 1.6131 129.7 21.2 3239 159
2018 05 20 23  12 26 53.829   -08 08 52.49  .76664 1.6128 129.6 21.2 3257 159
2018 05 21 00  12 26 51.473   -08 09 29.54  .76667 1.6125 129.6 21.2 3274 159
2018 05 21 01  12 26 49.122   -08 10 06.62  .76669 1.6123 129.5 21.2 3291 159
2018 05 21 02  12 26 46.776   -08 10 43.71  .76672 1.6120 129.5 21.2 3309 159
2018 05 21 03  12 26 44.435   -08 11 20.83  .76675 1.6118 129.4 21.2 3326 159
2018 05 21 04  12 26 42.099   -08 11 57.98  .76678 1.6115 129.4 21.2 3344 159
2018 05 21 05  12 26 39.768   -08 12 35.14  .76681 1.6112 129.3 21.2 3361 159
2018 05 21 06  12 26 37.443   -08 13 12.33  .76684 1.6110 129.3 21.2 3379 159
2018 05 21 07  12 26 35.122   -08 13 49.54  .76687 1.6107 129.2 21.2 3396 159
2018 05 21 08  12 26 32.807   -08 14 26.77  .76690 1.6104 129.2 21.2 3414 159
2018 05 21 09  12 26 30.497   -08 15 04.03  .76692 1.6102 129.2 21.2 3431 159
2018 05 21 10  12 26 28.192   -08 15 41.31  .76695 1.6099 129.1 21.2 3449 159
2018 05 21 11  12 26 25.891   -08 16 18.61  .76698 1.6096 129.1 21.2 3466 159
2018 05 21 12  12 26 23.596   -08 16 55.93  .76701 1.6094 129.0 21.2 3484 159
2018 05 21 13  12 26 21.306   -08 17 33.28  .76705 1.6091 129.0 21.2 3502 158
2018 05 21 14  12 26 19.022   -08 18 10.64  .76708 1.6089 128.9 21.2 3520 158
2018 05 21 15  12 26 16.742   -08 18 48.04  .76711 1.6086 128.9 21.2 3537 158
2018 05 21 16  12 26 14.467   -08 19 25.45  .76714 1.6083 128.8 21.2 3555 158
2018 05 21 17  12 26 12.198   -08 20 02.88  .76717 1.6081 128.8 21.2 3573 158
2018 05 21 18  12 26 09.933   -08 20 40.34  .76720 1.6078 128.7 21.2 3591 158
2018 05 21 19  12 26 07.674   -08 21 17.82  .76723 1.6075 128.7 21.2 3609 158
2018 05 21 20  12 26 05.420   -08 21 55.33  .76726 1.6073 128.7 21.2 3627 158
2018 05 21 21  12 26 03.171   -08 22 32.85  .76729 1.6070 128.6 21.2 3645 158
2018 05 21 22  12 26 00.927   -08 23 10.40  .76733 1.6068 128.6 21.2 3663 158